Погода в Паландёкене

Турция     39°51′02″N   41°11′33″E
темп.,
°C
ветер,
м/с
пор.,
м/с
влажн.,
%
обл.,
%
осадки,
мм/ч
давл.,
гПа
погр.,
м
25 января, пн
пн2500:00−10ю224499 0.0 103121
03:00−9ю2252100 0.0 103021
06:00−11ю224981 0.0 103021
09:00−11ю224942 0.0 103021
12:00−6ю22640 0.0 102861
15:00−7ю22660 0.0 102523
18:00−12ю22550 0.0 102821
21:00−11ююв225535 0.0 102821
26 января, вт
вт2600:00−9ю2258100 0.0 103021
03:00−9ююз1261100 0.0 102921
06:00−11ююз225967 0.0 103021
09:00−10ююз226133 0.0 103121
12:00−5ююз22712 0.0 102990
15:00−6ю12771 0.0 102726
18:00−10ю22670 0.0 102921
21:00−9ююв226937 0.0 102921
27 января, ср
ср2700:00−9ююв226795 0.0 102921
03:00−10ююв226296 0.0 102821
06:00−9ююв336296 0.0 102721
09:00−8юв336594 0.0 102627
12:00−5ююв3371100 0.0 102388
15:00−5ююв2275100 0.0 102059
18:00−9ююв3360100 0.0 102123
21:00−9юв3361100 0.0 102124
28 января, чт
чт2800:00−9юв3365100 0.0 102023
03:00−9ююв3373100 0.0 101927
06:00−9ююв338598 0.0 101838
09:00−8ююв358899 0.0 1017185
12:00−5ююв31189100 0.0 1014664
15:00−4ююв2990100 0.1 1011713
18:00−7ююв2296100 1.1 101368
21:00−8ююв2295100 3.0 101423
29 января, пт
пт2900:00−7ююв3396100 1.2 101594
03:00−9ююв359693 1.6 1014180
06:00−8ю369697 0.4 1014217
09:00−8ююв229698 0.7 101561
12:00−6ю3792100 0.8 1013607
15:00−5ююз2494100 2.7 1011387
18:00−9ю1296100 0.3 101221
21:00−11ююз1197100 0.3 101521